Time,TemperatureF,DewpointF,PressureIn,WindDirection,WindDirectionDegrees,WindSpeedMPH,WindSpeedGustMPH,Humidity,HourlyPrecipIn,Conditions,Clouds,dailyrainin,SolarRadiationWatts/m^2,SoftwareType,DateUTC
2013-01-16 00:02:00,63.0,62.0,-100.00,South,178,5.0,9.0,96,0.02,,,0.04,0.000000,,2013-01-16 05:02:00,
2013-01-16 00:33:00,63.0,62.0,-100.00,South,178,5.0,9.0,96,0.02,,,0.04,0.000000,,2013-01-16 05:33:00,
2013-01-16 00:42:00,63.0,62.0,-100.00,South,178,5.0,9.0,96,0.02,,,0.04,0.000000,,2013-01-16 05:42:00,
2013-01-16 00:53:00,63.0,62.0,-100.00,South,178,5.0,9.0,96,0.02,,,0.04,0.000000,,2013-01-16 05:53:00,
2013-01-16 01:02:00,63.0,62.0,-100.00,SSE,168,3.0,9.0,95,0.01,,,0.05,0.000000,,2013-01-16 06:02:00,
2013-01-16 01:22:00,63.0,62.0,-100.00,SSE,168,3.0,9.0,95,0.01,,,0.05,0.000000,,2013-01-16 06:22:00,
2013-01-16 01:33:00,63.0,62.0,-100.00,SSE,168,3.0,9.0,95,0.01,,,0.05,0.000000,,2013-01-16 06:33:00,
2013-01-16 01:43:00,63.0,62.0,-100.00,SSE,168,3.0,9.0,95,0.01,,,0.05,0.000000,,2013-01-16 06:43:00,
2013-01-16 01:53:00,63.0,62.0,-100.00,SSE,168,3.0,9.0,95,0.01,,,0.05,0.000000,,2013-01-16 06:53:00,
2013-01-16 02:02:00,62.0,61.0,-100.00,ESE,113,1.0,6.0,97,0.00,,,0.05,0.000000,,2013-01-16 07:02:00,
2013-01-16 02:22:00,62.0,61.0,-100.00,ESE,113,1.0,6.0,97,0.00,,,0.05,0.000000,,2013-01-16 07:22:00,
2013-01-16 02:33:00,62.0,61.0,-100.00,ESE,113,1.0,6.0,97,0.00,,,0.05,0.000000,,2013-01-16 07:33:00,
2013-01-16 02:42:00,62.0,61.0,-100.00,ESE,113,1.0,6.0,97,0.00,,,0.05,0.000000,,2013-01-16 07:42:00,
2013-01-16 02:52:00,62.0,61.0,-100.00,ESE,113,1.0,6.0,97,0.00,,,0.05,0.000000,,2013-01-16 07:52:00,
2013-01-16 03:02:00,63.0,61.0,-100.00,SSE,166,3.0,6.0,92,0.00,,,0.05,0.000000,,2013-01-16 08:02:00,
2013-01-16 03:23:00,63.0,61.0,-100.00,SSE,166,3.0,6.0,92,0.00,,,0.05,0.000000,,2013-01-16 08:23:00,
2013-01-16 03:33:00,63.0,61.0,-100.00,SSE,166,3.0,6.0,92,0.00,,,0.05,0.000000,,2013-01-16 08:33:00,
2013-01-16 03:42:00,63.0,61.0,-100.00,SSE,166,3.0,6.0,92,0.00,,,0.05,0.000000,,2013-01-16 08:42:00,
2013-01-16 03:53:00,63.0,61.0,-100.00,SSE,166,3.0,6.0,92,0.00,,,0.05,0.000000,,2013-01-16 08:53:00,
2013-01-16 04:02:00,62.0,59.0,-100.00,South,170,2.0,6.0,90,0.00,,,0.05,0.000000,,2013-01-16 09:02:00,
2013-01-16 04:33:00,62.0,59.0,-100.00,South,170,2.0,6.0,90,0.00,,,0.05,0.000000,,2013-01-16 09:33:00,
2013-01-16 04:43:00,62.0,59.0,-100.00,South,170,2.0,6.0,90,0.00,,,0.05,0.000000,,2013-01-16 09:43:00,
2013-01-16 04:53:00,62.0,59.0,-100.00,South,170,2.0,6.0,90,0.00,,,0.05,0.000000,,2013-01-16 09:53:00,
2013-01-16 05:02:00,62.0,59.0,-100.00,SSE,161,1.0,4.0,91,0.00,,,0.05,0.000000,,2013-01-16 10:02:00,
2013-01-16 05:33:00,62.0,59.0,-100.00,SSE,161,1.0,4.0,91,0.00,,,0.05,0.000000,,2013-01-16 10:33:00,
2013-01-16 05:43:00,62.0,59.0,-100.00,SSE,161,1.0,4.0,91,0.00,,,0.05,0.000000,,2013-01-16 10:43:00,
2013-01-16 05:53:00,62.0,59.0,-100.00,SSE,161,1.0,4.0,91,0.00,,,0.05,0.000000,,2013-01-16 10:53:00,
2013-01-16 06:02:00,61.0,59.0,-100.00,SE,128,2.0,5.0,94,0.00,,,0.05,0.000000,,2013-01-16 11:02:00,
2013-01-16 06:33:00,61.0,59.0,-100.00,SE,128,2.0,5.0,94,0.00,,,0.05,0.000000,,2013-01-16 11:33:00,
2013-01-16 06:43:00,61.0,59.0,-100.00,SE,128,2.0,5.0,94,0.00,,,0.05,0.000000,,2013-01-16 11:43:00,
2013-01-16 06:53:00,61.0,59.0,-100.00,SE,128,2.0,5.0,94,0.00,,,0.05,0.000000,,2013-01-16 11:53:00,
2013-01-16 07:02:00,62.0,59.0,-100.00,South,181,4.0,7.0,91,0.00,,,0.05,0.000000,,2013-01-16 12:02:00,
2013-01-16 07:33:00,62.0,59.0,-100.00,South,181,4.0,7.0,91,0.00,,,0.05,0.000000,,2013-01-16 12:33:00,
2013-01-16 07:43:00,62.0,59.0,-100.00,South,181,4.0,7.0,91,0.00,,,0.05,0.000000,,2013-01-16 12:43:00,
2013-01-16 07:53:00,62.0,59.0,-100.00,South,181,4.0,7.0,91,0.00,,,0.05,0.000000,,2013-01-16 12:53:00,
2013-01-16 08:02:00,60.0,59.0,-100.00,South,182,4.0,10.0,95,0.02,,,0.07,2.000000,,2013-01-16 13:02:00,
2013-01-16 08:33:00,60.0,59.0,-100.00,South,182,4.0,10.0,95,0.02,,,0.07,2.000000,,2013-01-16 13:33:00,
2013-01-16 08:43:00,60.0,59.0,-100.00,South,182,4.0,10.0,95,0.02,,,0.07,2.000000,,2013-01-16 13:43:00,
2013-01-16 08:53:00,60.0,59.0,-100.00,South,182,4.0,10.0,95,0.02,,,0.07,2.000000,,2013-01-16 13:53:00,
2013-01-16 09:02:00,61.0,60.0,-100.00,SSW,193,6.0,11.0,98,0.08,,,0.15,20.000000,,2013-01-16 14:02:00,
2013-01-16 09:33:00,61.0,60.0,-100.00,SSW,193,6.0,11.0,98,0.08,,,0.15,20.000000,,2013-01-16 14:33:00,
2013-01-16 09:43:00,61.0,60.0,-100.00,SSW,193,6.0,11.0,98,0.08,,,0.15,20.000000,,2013-01-16 14:43:00,
2013-01-16 09:53:00,61.0,60.0,-100.00,SSW,193,6.0,11.0,98,0.08,,,0.15,20.000000,,2013-01-16 14:53:00,
2013-01-16 10:02:00,62.0,61.0,-100.00,SSW,203,6.0,13.0,97,0.03,,,0.18,67.000000,,2013-01-16 15:02:00,
2013-01-16 10:33:00,62.0,61.0,-100.00,SSW,203,6.0,13.0,97,0.03,,,0.18,67.000000,,2013-01-16 15:33:00,
2013-01-16 10:43:00,62.0,61.0,-100.00,SSW,203,6.0,13.0,97,0.03,,,0.18,67.000000,,2013-01-16 15:43:00,
2013-01-16 10:53:00,62.0,61.0,-100.00,SSW,203,6.0,13.0,97,0.03,,,0.18,67.000000,,2013-01-16 15:53:00,
2013-01-16 11:02:00,63.0,62.0,-100.00,SSW,209,6.0,12.0,96,0.01,,,0.19,85.000000,,2013-01-16 16:02:00,
2013-01-16 11:33:00,63.0,62.0,-100.00,SSW,209,6.0,12.0,96,0.01,,,0.19,85.000000,,2013-01-16 16:33:00,
2013-01-16 11:43:00,63.0,62.0,-100.00,SSW,209,6.0,12.0,96,0.01,,,0.19,85.000000,,2013-01-16 16:43:00,
2013-01-16 11:53:00,63.0,62.0,-100.00,SSW,209,6.0,12.0,96,0.01,,,0.19,85.000000,,2013-01-16 16:53:00,
2013-01-16 12:02:00,65.0,64.0,-100.00,SSW,199,5.0,9.0,96,0.00,,,0.19,88.000000,,2013-01-16 17:02:00,
2013-01-16 12:33:00,65.0,64.0,-100.00,SSW,199,5.0,9.0,96,0.00,,,0.19,88.000000,,2013-01-16 17:33:00,
2013-01-16 12:44:00,65.0,64.0,-100.00,SSW,199,5.0,9.0,96,0.00,,,0.19,88.000000,,2013-01-16 17:44:00,
2013-01-16 12:53:00,65.0,64.0,-100.00,SSW,199,5.0,9.0,96,0.00,,,0.19,88.000000,,2013-01-16 17:53:00,
2013-01-16 13:02:00,61.0,60.0,-100.00,North,3,3.0,10.0,97,0.04,,,0.23,84.000000,,2013-01-16 18:02:00,
2013-01-16 13:33:00,61.0,60.0,-100.00,North,3,3.0,10.0,97,0.04,,,0.23,84.000000,,2013-01-16 18:33:00,
2013-01-16 13:43:00,61.0,60.0,-100.00,North,3,3.0,10.0,97,0.04,,,0.23,84.000000,,2013-01-16 18:43:00,
2013-01-16 13:53:00,61.0,60.0,-100.00,North,3,3.0,10.0,97,0.04,,,0.23,84.000000,,2013-01-16 18:53:00,
2013-01-16 14:02:00,62.0,61.0,-100.00,North,1,4.0,6.0,95,0.00,,,0.23,147.000000,,2013-01-16 19:02:00,
2013-01-16 14:33:00,62.0,61.0,-100.00,North,1,4.0,6.0,95,0.00,,,0.23,147.000000,,2013-01-16 19:33:00,
2013-01-16 14:43:00,62.0,61.0,-100.00,North,1,4.0,6.0,95,0.00,,,0.23,147.000000,,2013-01-16 19:43:00,
2013-01-16 14:53:00,62.0,61.0,-100.00,North,1,4.0,6.0,95,0.00,,,0.23,147.000000,,2013-01-16 19:53:00,
2013-01-16 15:02:00,61.0,60.0,-100.00,North,359,2.0,5.0,96,0.00,,,0.23,108.000000,,2013-01-16 20:02:00,
2013-01-16 15:23:00,61.0,60.0,-100.00,North,359,2.0,5.0,96,0.00,,,0.23,108.000000,,2013-01-16 20:23:00,
2013-01-16 15:33:00,61.0,60.0,-100.00,North,359,2.0,5.0,96,0.00,,,0.23,108.000000,,2013-01-16 20:33:00,
2013-01-16 15:43:00,61.0,60.0,-100.00,North,359,2.0,5.0,96,0.00,,,0.23,108.000000,,2013-01-16 20:43:00,
2013-01-16 15:53:00,61.0,60.0,-100.00,North,359,2.0,5.0,96,0.00,,,0.23,108.000000,,2013-01-16 20:53:00,
2013-01-16 16:02:00,60.0,59.0,-100.00,NNE,27,2.0,7.0,98,0.16,,,0.39,48.000000,,2013-01-16 21:02:00,
2013-01-16 16:33:00,60.0,59.0,-100.00,NNE,27,2.0,7.0,98,0.16,,,0.39,48.000000,,2013-01-16 21:33:00,
2013-01-16 16:43:00,60.0,59.0,-100.00,NNE,27,2.0,7.0,98,0.16,,,0.39,48.000000,,2013-01-16 21:43:00,
2013-01-16 16:53:00,60.0,59.0,-100.00,NNE,27,2.0,7.0,98,0.16,,,0.39,48.000000,,2013-01-16 21:53:00,
2013-01-16 17:02:00,58.0,57.0,-100.00,North,2,3.0,11.0,98,0.04,,,0.43,20.000000,,2013-01-16 22:02:00,
2013-01-16 17:23:00,58.0,57.0,-100.00,North,2,3.0,11.0,98,0.04,,,0.43,20.000000,,2013-01-16 22:23:00,
2013-01-16 17:33:00,58.0,57.0,-100.00,North,2,3.0,11.0,98,0.04,,,0.43,20.000000,,2013-01-16 22:33:00,
2013-01-16 17:43:00,58.0,57.0,-100.00,North,2,3.0,11.0,98,0.04,,,0.43,20.000000,,2013-01-16 22:43:00,
2013-01-16 17:53:00,58.0,57.0,-100.00,North,2,3.0,11.0,98,0.04,,,0.43,20.000000,,2013-01-16 22:53:00,
2013-01-16 18:02:00,57.0,57.0,-100.00,ENE,74,2.0,5.0,99,0.00,,,0.43,4.000000,,2013-01-16 23:02:00,
2013-01-16 18:33:00,57.0,57.0,-100.00,ENE,74,2.0,5.0,99,0.00,,,0.43,4.000000,,2013-01-16 23:33:00,
2013-01-16 18:43:00,57.0,57.0,-100.00,ENE,74,2.0,5.0,99,0.00,,,0.43,4.000000,,2013-01-16 23:43:00,
2013-01-16 18:53:00,57.0,57.0,-100.00,ENE,74,2.0,5.0,99,0.00,,,0.43,4.000000,,2013-01-16 23:53:00,
2013-01-16 19:02:00,57.0,57.0,-100.00,North,355,3.0,5.0,99,0.01,,,0.44,0.000000,,2013-01-17 00:02:00,
2013-01-16 19:33:00,57.0,57.0,-100.00,North,355,3.0,5.0,99,0.01,,,0.44,0.000000,,2013-01-17 00:33:00,
2013-01-16 19:42:00,57.0,57.0,-100.00,North,355,3.0,5.0,99,0.01,,,0.44,0.000000,,2013-01-17 00:42:00,
2013-01-16 19:53:00,57.0,57.0,-100.00,North,355,3.0,5.0,99,0.01,,,0.44,0.000000,,2013-01-17 00:53:00,
2013-01-16 20:02:00,57.0,57.0,-100.00,NNW,348,3.0,6.0,99,0.02,,,0.46,0.000000,,2013-01-17 01:02:00,
2013-01-16 20:22:00,57.0,57.0,-100.00,NNW,348,3.0,6.0,99,0.02,,,0.46,0.000000,,2013-01-17 01:22:00,
2013-01-16 20:33:00,57.0,57.0,-100.00,NNW,348,3.0,6.0,99,0.02,,,0.46,0.000000,,2013-01-17 01:33:00,
2013-01-16 20:43:00,57.0,57.0,-100.00,NNW,348,3.0,6.0,99,0.02,,,0.46,0.000000,,2013-01-17 01:43:00,
2013-01-16 20:53:00,57.0,57.0,-100.00,NNW,348,3.0,6.0,99,0.02,,,0.46,0.000000,,2013-01-17 01:53:00,
2013-01-16 21:02:00,56.0,56.0,-100.00,NNE,27,3.0,6.0,99,0.15,,,0.61,0.000000,,2013-01-17 02:02:00,
2013-01-16 21:32:00,56.0,56.0,-100.00,NNE,27,3.0,6.0,99,0.15,,,0.61,0.000000,,2013-01-17 02:32:00,
2013-01-16 21:43:00,56.0,56.0,-100.00,NNE,27,3.0,6.0,99,0.15,,,0.61,0.000000,,2013-01-17 02:43:00,
2013-01-16 21:52:00,56.0,56.0,-100.00,NNE,27,3.0,6.0,99,0.15,,,0.61,0.000000,,2013-01-17 02:52:00,
2013-01-16 22:02:00,56.0,56.0,-100.00,North,4,2.0,6.0,99,0.09,,,0.70,0.000000,,2013-01-17 03:02:00,
2013-01-16 22:33:00,56.0,56.0,-100.00,North,4,2.0,6.0,99,0.09,,,0.70,0.000000,,2013-01-17 03:33:00,
2013-01-16 22:43:00,56.0,56.0,-100.00,North,4,2.0,6.0,99,0.09,,,0.70,0.000000,,2013-01-17 03:43:00,
2013-01-16 22:53:00,56.0,56.0,-100.00,North,4,2.0,6.0,99,0.09,,,0.70,0.000000,,2013-01-17 03:53:00,
2013-01-16 23:02:00,56.0,56.0,-100.00,NNW,340,3.0,5.0,99,0.04,,,0.72,0.000000,,2013-01-17 04:02:00,
2013-01-16 23:33:00,56.0,56.0,-100.00,NNW,340,3.0,5.0,99,0.04,,,0.72,0.000000,,2013-01-17 04:33:00,
2013-01-16 23:43:00,56.0,56.0,-100.00,NNW,340,3.0,5.0,99,0.04,,,0.72,0.000000,,2013-01-17 04:43:00,
2013-01-16 23:53:00,56.0,56.0,-100.00,NNW,340,3.0,5.0,99,0.04,,,0.72,0.000000,,2013-01-17 04:53:00,